Terminal Aerodrome Forecast
Issued by NWS

Home | Current Version | Previous Version | Text Only | Print | Product List | Glossary On
Versions: 1 2 3 4 5 6 7 8 9 10 11 12 13 14 15 16 17 18
000
FTUS42 KTBW 111900 AAC
TAFPGD
TAF AMD
KPGD 111955Z 1120/1218 VRB12G20KT 5SM -TSRA BKN030CB BKN060
     FM112100 24010KT P6SM VCTS SCT040CB BKN150
     FM120100 08004KT P6SM SCT100 BKN200
     FM121500 13004KT P6SM FEW040 FEW200=

USA.gov is the U.S. government's official web portal to all federal, state and local government web resources and services.